This is the latest recevied weather packets stored in our database for station/object KI7JYE. If no packets are shown the sender has not sent any weather packets the latest 10 day(s).
| Time | Temp. | Humidity | Pressure | Rain* | Wind** | Luminosity | Snow |
|---|---|---|---|---|---|---|---|
| 1778020444 | 17.78° C | 69% | 1015 hPa | 0 mm | - | 293 W/m² | - |
| 1778020140 | 17.78° C | 69% | 1014.8 hPa | 0 mm | - | 298 W/m² | - |
| 1778019836 | 18.89° C | 69% | 1015 hPa | 0 mm | - | 460 W/m² | - |
| 1778019533 | 17.78° C | 69% | 1015.1 hPa | 0 mm | - | 801 W/m² | - |
| 1778019230 | 17.78° C | 69% | 1015 hPa | 0 mm | - | 355 W/m² | - |
| 1778018927 | 17.78° C | 69% | 1015.2 hPa | 0 mm | - | 305 W/m² | - |
| 1778018624 | 17.78° C | 69% | 1015.3 hPa | 0 mm | - | 294 W/m² | - |
| 1778018322 | 17.22° C | 70% | 1015.2 hPa | 0 mm | - | 276 W/m² | - |
| 1778018020 | 17.22° C | 72% | 1015.3 hPa | 0 mm | - | 248 W/m² | - |
| 1778017718 | 17.22° C | 71% | 1015.2 hPa | 0 mm | - | 232 W/m² | - |
| 1778017415 | 17.22° C | 72% | 1015.1 hPa | 0 mm | - | 216 W/m² | - |
| 1778017112 | 16.67° C | 72% | 1015.3 hPa | 0 mm | - | 227 W/m² | - |
| 1778016810 | 16.67° C | 71% | 1015.4 hPa | 0 mm | - | 232 W/m² | - |
| 1778016505 | 16.11° C | 74% | 1015.2 hPa | 0 mm | - | 239 W/m² | - |
| 1778016203 | 16.67° C | 72% | 1015.1 hPa | 0 mm | - | 256 W/m² | - |
| 1778015898 | 16.67° C | 74% | 1015.2 hPa | 0 mm | - | 277 W/m² | - |
| 1778015596 | 16.11° C | 74% | 1015.3 hPa | 0 mm | - | 270 W/m² | - |
| 1778015293 | 16.67° C | 75% | 1015.3 hPa | 0 mm | - | 249 W/m² | - |
| 1778014990 | 16.11° C | 76% | 1015.2 hPa | 0 mm | - | 247 W/m² | - |
| 1778014687 | 16.11° C | 74% | 1015.6 hPa | 0 mm | - | 228 W/m² | - |
| 1778014385 | 16.11° C | 74% | 1015.3 hPa | 0 mm | - | 202 W/m² | - |
| 1778014081 | 16.11° C | 75% | 1015.5 hPa | 0 mm | - | 211 W/m² | - |
| 1778013779 | 16.11° C | 75% | 1015.3 hPa | 0 mm | - | 213 W/m² | - |
| 1778013476 | 16.11° C | 73% | 1015.6 hPa | 0 mm | - | 200 W/m² | - |
| 1778013173 | 16.11° C | 75% | 1015.5 hPa | 0 mm | - | 193 W/m² | - |
* Rain latest hour (hover to see other rain measurements)
** Current wind speed in m/s (hover to see current wind gust speed)